TimeEST,TemperatureF,Dew PointF,Humidity,Sea Level PressureIn,VisibilityMPH,Wind Direction,Wind SpeedMPH,Gust SpeedMPH,PrecipitationIn,Events,Conditions,WindDirDegrees,DateUTC
12:15 AM,55.8,46.2,70,30.38,10.0,South,5.8,-,N/A,,Overcast,180,2013-11-06 05:15:00
12:35 AM,56.1,47.3,72,30.37,10.0,Calm,Calm,-,N/A,,Overcast,0,2013-11-06 05:35:00
12:55 AM,55.6,47.7,75,30.37,10.0,SE,3.5,-,N/A,,Overcast,130,2013-11-06 05:55:00
1:35 AM,55.8,48.4,76,30.36,10.0,ESE,3.5,-,N/A,,Overcast,120,2013-11-06 06:35:00
1:55 AM,54.3,48.2,80,30.36,10.0,ESE,3.5,-,N/A,,Overcast,120,2013-11-06 06:55:00
2:15 AM,54.7,48.6,80,30.35,10.0,SE,4.6,-,N/A,,Overcast,140,2013-11-06 07:15:00
2:35 AM,55.4,48.9,79,30.35,10.0,SE,4.6,-,N/A,,Overcast,130,2013-11-06 07:35:00
2:55 AM,55.9,49.1,78,30.34,10.0,Calm,Calm,-,N/A,,Overcast,0,2013-11-06 07:55:00
3:15 AM,54.9,48.7,80,30.33,10.0,SE,3.5,-,N/A,,Mostly Cloudy,130,2013-11-06 08:15:00
3:35 AM,53.8,48.6,82,30.33,10.0,SE,5.8,-,N/A,,Scattered Clouds,140,2013-11-06 08:35:00
3:55 AM,53.2,48.7,85,30.32,10.0,SSE,3.5,-,N/A,,Clear,150,2013-11-06 08:55:00
4:15 AM,54.9,49.1,81,30.32,10.0,Calm,Calm,-,N/A,,Clear,0,2013-11-06 09:15:00
4:35 AM,53.2,48.7,85,30.32,10.0,SE,3.5,-,N/A,,Clear,140,2013-11-06 09:35:00
4:55 AM,53.1,48.6,85,30.31,10.0,SSE,5.8,-,N/A,,Clear,150,2013-11-06 09:55:00
5:15 AM,54.0,49.1,84,30.31,10.0,SE,3.5,-,N/A,,Clear,140,2013-11-06 10:15:00
5:35 AM,53.8,48.7,83,30.31,10.0,SE,4.6,-,N/A,,Clear,140,2013-11-06 10:35:00
5:55 AM,54.1,49.1,83,30.31,10.0,SE,5.8,-,N/A,,Clear,140,2013-11-06 10:55:00
6:15 AM,54.5,49.1,82,30.31,10.0,SE,5.8,-,N/A,,Clear,130,2013-11-06 11:15:00
6:35 AM,53.4,48.6,84,30.31,10.0,SE,5.8,-,N/A,,Clear,140,2013-11-06 11:35:00
6:55 AM,53.8,48.7,83,30.31,10.0,SE,6.9,-,N/A,,Clear,140,2013-11-06 11:55:00
7:15 AM,54.3,48.7,81,30.31,10.0,SE,5.8,-,N/A,,Clear,130,2013-11-06 12:15:00
7:35 AM,54.3,48.7,81,30.31,10.0,SE,5.8,-,N/A,,Clear,140,2013-11-06 12:35:00
7:55 AM,56.8,49.1,75,30.30,10.0,SE,4.6,-,N/A,,Scattered Clouds,140,2013-11-06 12:55:00
8:15 AM,58.1,49.3,72,30.31,-9999.0,SE,5.8,-,N/A,,Scattered Clouds,140,2013-11-06 13:15:00
8:35 AM,57.6,49.3,74,30.31,-9999.0,SSE,4.6,-,N/A,,Mostly Cloudy,150,2013-11-06 13:35:00
8:55 AM,60.6,49.8,68,30.30,-9999.0,SE,9.2,-,N/A,,Scattered Clouds,140,2013-11-06 13:55:00
9:15 AM,60.6,48.9,65,30.30,-9999.0,SE,6.9,-,N/A,,Mostly Cloudy,130,2013-11-06 14:15:00
9:35 AM,60.8,49.1,65,30.30,-9999.0,SE,3.5,-,N/A,,Mostly Cloudy,130,2013-11-06 14:35:00
9:55 AM,62.2,49.3,63,30.30,-9999.0,SSW,6.9,-,N/A,,Overcast,210,2013-11-06 14:55:00
10:15 AM,64.8,49.1,57,30.30,-9999.0,SSE,3.5,-,N/A,,Mostly Cloudy,160,2013-11-06 15:15:00
10:35 AM,64.6,48.7,56,30.30,-9999.0,SSW,4.6,-,N/A,,Clear,200,2013-11-06 15:35:00
10:55 AM,65.3,49.3,56,30.30,-9999.0,South,4.6,-,N/A,,Scattered Clouds,180,2013-11-06 15:55:00
11:15 AM,66.6,49.5,54,30.29,-9999.0,WSW,5.8,-,N/A,,Scattered Clouds,250,2013-11-06 16:15:00
11:35 AM,67.6,49.5,52,30.28,-9999.0,South,5.8,-,N/A,,Scattered Clouds,190,2013-11-06 16:35:00
11:55 AM,67.8,49.3,51,30.27,-9999.0,SE,3.5,-,N/A,,Clear,130,2013-11-06 16:55:00
12:15 PM,69.4,49.5,49,30.26,-9999.0,SSE,5.8,-,N/A,,Scattered Clouds,150,2013-11-06 17:15:00
12:35 PM,69.3,49.5,49,30.26,-9999.0,SE,4.6,-,N/A,,Mostly Cloudy,140,2013-11-06 17:35:00
12:55 PM,69.8,49.5,48,30.24,-9999.0,South,4.6,-,N/A,,Overcast,170,2013-11-06 17:55:00
1:15 PM,70.3,49.5,47,30.24,-9999.0,South,5.8,-,N/A,,Overcast,190,2013-11-06 18:15:00
1:35 PM,70.5,48.9,46,30.23,-9999.0,SSE,8.1,-,N/A,,Overcast,150,2013-11-06 18:35:00
1:55 PM,68.7,48.6,49,30.22,10.0,South,6.9,-,N/A,,Overcast,170,2013-11-06 18:55:00
2:15 PM,69.8,48.4,46,30.21,10.0,South,10.4,17.3,N/A,,Overcast,190,2013-11-06 19:15:00
2:35 PM,68.7,48.6,49,30.20,10.0,South,5.8,-,N/A,,Overcast,190,2013-11-06 19:35:00
2:55 PM,68.7,47.8,47,30.20,10.0,South,8.1,-,N/A,,Mostly Cloudy,190,2013-11-06 19:55:00
3:15 PM,68.2,47.3,47,30.19,10.0,South,10.4,16.1,N/A,,Mostly Cloudy,180,2013-11-06 20:15:00
3:35 PM,68.4,47.7,48,30.18,10.0,SSE,6.9,-,N/A,,Overcast,160,2013-11-06 20:35:00
3:55 PM,68.9,48.0,47,30.18,10.0,SE,4.6,-,N/A,,Overcast,140,2013-11-06 20:55:00
4:15 PM,68.5,47.7,47,30.17,10.0,South,8.1,-,N/A,,Overcast,170,2013-11-06 21:15:00
4:35 PM,68.4,47.5,47,30.17,10.0,South,6.9,-,N/A,,Overcast,170,2013-11-06 21:35:00
4:55 PM,66.7,48.0,51,30.16,10.0,South,5.8,-,N/A,,Mostly Cloudy,170,2013-11-06 21:55:00
5:15 PM,65.8,47.7,52,30.16,10.0,SSE,4.6,-,N/A,,Scattered Clouds,160,2013-11-06 22:15:00
5:35 PM,65.1,47.8,54,30.16,10.0,South,4.6,-,N/A,,Clear,170,2013-11-06 22:35:00
5:55 PM,64.8,47.5,53,30.16,10.0,South,6.9,-,N/A,,Mostly Cloudy,190,2013-11-06 22:55:00
6:15 PM,64.4,47.3,54,30.15,10.0,South,9.2,-,N/A,,Mostly Cloudy,170,2013-11-06 23:15:00
6:35 PM,63.3,47.1,56,30.14,10.0,SE,6.9,-,N/A,,Scattered Clouds,140,2013-11-06 23:35:00
6:55 PM,63.9,46.8,54,30.14,10.0,South,6.9,-,N/A,,Clear,170,2013-11-06 23:55:00
7:15 PM,63.0,46.8,55,30.14,10.0,SSE,5.8,-,N/A,,Clear,150,2013-11-07 00:15:00
7:35 PM,61.2,46.8,59,30.13,10.0,SE,5.8,-,N/A,,Clear,140,2013-11-07 00:35:00
7:55 PM,61.0,46.6,59,30.13,10.0,SSE,6.9,-,N/A,,Clear,150,2013-11-07 00:55:00
8:15 PM,60.8,46.4,59,30.13,10.0,SSE,5.8,-,N/A,,Clear,150,2013-11-07 01:15:00
8:35 PM,61.0,46.6,59,30.13,10.0,SSE,5.8,-,N/A,,Clear,160,2013-11-07 01:35:00
8:55 PM,60.1,46.6,61,30.13,10.0,SSE,5.8,-,N/A,,Clear,160,2013-11-07 01:55:00
9:15 PM,59.9,46.9,62,30.12,10.0,SSE,4.6,-,N/A,,Clear,160,2013-11-07 02:15:00
9:35 PM,59.9,47.3,63,30.12,10.0,SSE,6.9,-,N/A,,Clear,160,2013-11-07 02:35:00
9:55 PM,60.3,47.8,64,30.12,10.0,SSW,9.2,-,N/A,,Clear,200,2013-11-07 02:55:00
10:15 PM,59.5,48.2,66,30.12,10.0,South,9.2,-,N/A,,Clear,170,2013-11-07 03:15:00
10:35 PM,59.4,48.4,67,30.11,10.0,South,6.9,-,N/A,,Clear,180,2013-11-07 03:35:00
10:55 PM,59.5,48.2,66,30.11,10.0,South,8.1,-,N/A,,Clear,180,2013-11-07 03:55:00
11:15 PM,59.2,48.2,67,30.10,10.0,South,8.1,-,N/A,,Clear,170,2013-11-07 04:15:00
11:35 PM,59.9,48.2,65,30.10,10.0,South,10.4,16.1,N/A,,Mostly Cloudy,180,2013-11-07 04:35:00
11:55 PM,60.8,48.2,63,30.10,10.0,WSW,5.8,-,N/A,,Overcast,240,2013-11-07 04:55:00